DECAYED

FENGYUN 1C DEB, 31258 (Decayed)

Orbit data source: Space-Track

FENGYUN 1C DEB, 31258 was space debris in SSO originally from a launch on Mon, 10 May 1999 UTC launched from the Taiyaun Space Center, China (TSC). Fengyun 1C debris stems from the Chinese weather satellite Fengyun-1C, which was intentionally destroyed by a Chinese anti-satellite missile in 2007. This event dramatically increased the amount of space debris, with thousands of trackable fragments posing hazards to satellites and human spaceflight. The Fengyun 1C debris cloud has become a focal point in discussions about space sustainability and the need for international regulations to prevent the creation of new debris.

Not visible in the next 10 days
Identifier
31258, 1999-025BMQ
Orbit
Decayed
Country
Flag of CNCN / PRC
Related business
Manufacturer
Unknown
Mission
Decayed spacecraft
Bus & Motor
Unknown
Mass
Unknown
Launch date (UTC)
1999-05-10 (27 years ago)
Launch vehicle
Unknown
Launch site
Taiyaun Space Center, China (TSC)
Object type
Payload
Rocket body
Debris
Shape & HBR
Unknown shape, 0.1 m
Radar Cross Section
Medium (>0.1 m² and <1 m²)

Expand to show TLE details & history
Last TLE update: 7 months ago

TLE from 7 months ago
0 FENGYUN 1C DEB
1 31258U 99025BMQ 26036.97551184  .06915706  66543-1  26839-1 0  9999
2 31258  98.8145 201.3909 0024060 331.3320  28.6624 15.91198396979563
Epoch: 2026-02-05T23:24Z
TLE epoch observation values (Epoch: 2026-02-05T23:24:44.222Z)
Latitude
-0.00012°
Longitude
74.08663°
Altitude
287.978 km
Speed
7.743 km/s
True Right ascension
13h 25m 33s
True Declination
0° 00' 00"
Sunlit
Object was in full shadow at epoch
Visualization orbit readout
Latitude
Unknown
Longitude
Unknown
Altitude
Unknown
Speed
Unknown
Apparent Right ascension
Unknown
Apparent Declination
Unknown
Sunlit
N/A
Visualization observer readout
Local Sidereal Time
11:06:42
Azimuth
Unknown
Elevation
Unknown
Doppler factor
Unknown
Orbital elements
Apogee altitude
311.925 km
Perigee altitude
279.81 km
Semi-major axis
6,674.005 km
Eccentricity
0.00241
Inclination
98.8145°
RAAN
201.3909°
Arg. of periapsis
331.332°
True anomaly
28.79499°
Mean anomaly
28.6624°
Eccentric anomaly
28.72866°
Mean motion
3.98074 °/min
Orbital period
90.44 mins
BSTAR
0.026839
Loading maneuver chart data...
Computing Atmospheric mass density...

Documentation

Showing up to 5 results
|